Location: Berlin
(52.5170°N, 13.4000°E)
Time: 10:00:29
(UTC+02:00)

ISS - Pass Details

Date: 18 July 2018
Orbit: 402 x 408 km, 51.6° (Epoch: 19 July)

Event Time Altitude Azimuth Distance (km) Brightness Sun altitude
Exits shadow 00:50:11 44° 191° (S) 573 -3.6 -16.2°
Maximum altitude 00:50:38 48° 161° (SSE) 538 -3.7 -16.3°
Drops below altitude 10° 00:53:50 10° 86° (E) 1,471 -1.0 -16.3°
Sets 00:55:58 0° 80° (E) 2,334 0.1 -16.3°
